"Pseudo-MPEC" for ZTF02V4

Created 2019 Feb 15 22:18:12 UT using Find_Orb

Click here for an explanation of pseudo-MPECs

 
 Astrometry: 
     ZTF02V4  C2019 02 08.27734 09 07 45.04 +33 48 23.1    ~292I 20.7 rUNEOCPI41
     ZTF02V4  C2019 02 08.31345 09 07 46.01 +33 48 23.2    ~292I 20.8 rUNEOCPI41
     ZTF02V4  C2019 02 08.32302 09 07 46.32 +33 48 22.9    ~292I 20.9 rUNEOCPI41
     ZTF02V4  C2019 02 08.38384 09 07 47.99 +33 48 22.4    ~292I 20.8 rUNEOCPI41

Station data:
(I41) Palomar Mountain--ZTF  (N33.357340 W116.859780)  US/California. 1.2-m
   f/2.44 Oschin Schmidt + CCD.

Orbital elements:  ZTF02V4
   Perihelion 2019 Jan 31.874823 +/- 39.9 TT = 20:59:44 (JD 2458515.374823)
Epoch 2019 Feb  8.0 TT = JDT 2458522.5   Earth MOID: 0.3256   Ma: 0.0098
M   1.99924621 +/- 12               (J2000 ecliptic)          AutoNEOCP
n   0.28058899 +/- 0.227            Peri.   63.16503 +/- 80
a   2.31076420 +/- 1.25             Node    67.60837 +/- 42
e   0.4368868 +/- 0.232             Incl.    4.43537 +/- 2.3
P   3.51                   H 22.1   G  0.15   U 11.7  SR
q 1.30122162 +/- 0.273    Q 3.32030677 +/- 78.3
From 4 observations 2019 Feb. 8 (2.6 hr); mean residual 0".23
Residuals in arcseconds: 
190208 I41  .05+  .27+    190208 I41  .27+  .38-    
190208 I41  .31-  .08-    190208 I41  .01-  .19+    

Ephemerides (geocentric):
Date (UTC) HH   RA              Dec         delta   r     elong  mag " sig PA
---- -- -- --  -------------   -----------  ------ ------ -----  --- ---- ---
2019 02 15 22  09 12 59.240   +33 31 16.06  .34250 1.3098 157.0 21.3 1843  11
2019 02 15 23  09 13 01.089   +33 31 04.88  .34259 1.3099 156.9 21.3 1865  11
2019 02 16 00  09 13 02.938   +33 30 53.65  .34267 1.3099 156.9 21.3 1887  11
2019 02 16 01  09 13 04.790   +33 30 42.35  .34276 1.3100 156.9 21.3 1910  11
2019 02 16 02  09 13 06.643   +33 30 31.00  .34284 1.3100 156.9 21.3 1933  11
2019 02 16 03  09 13 08.498   +33 30 19.59  .34292 1.3100 156.8 21.3 1957  12
2019 02 16 04  09 13 10.354   +33 30 08.11  .34301 1.3101 156.8 21.3 1981  12
2019 02 16 05  09 13 12.213   +33 29 56.58  .34309 1.3101 156.8 21.3 2005  12
2019 02 16 06  09 13 14.072   +33 29 44.99  .34318 1.3102 156.8 21.3 2029  12
2019 02 16 07  09 13 15.934   +33 29 33.34  .34326 1.3102 156.7 21.3 2054  12
2019 02 16 08  09 13 17.797   +33 29 21.64  .34335 1.3103 156.7 21.3 2079  12
2019 02 16 09  09 13 19.662   +33 29 09.87  .34344 1.3103 156.7 21.3 2104  12
2019 02 16 10  09 13 21.529   +33 28 58.05  .34352 1.3104 156.7 21.3 2130  12
2019 02 16 11  09 13 23.397   +33 28 46.16  .34361 1.3104 156.7 21.3 2156  12
2019 02 16 12  09 13 25.268   +33 28 34.22  .34369 1.3105 156.6 21.3 2182  12
2019 02 16 13  09 13 27.139   +33 28 22.22  .34378 1.3105 156.6 21.3 2209  12
2019 02 16 14  09 13 29.013   +33 28 10.16  .34387 1.3106 156.6 21.3 2236  12
2019 02 16 15  09 13 30.888   +33 27 58.04  .34395 1.3106 156.6 21.3 2263  12
2019 02 16 16  09 13 32.765   +33 27 45.87  .34404 1.3107 156.5 21.3 2291  12
2019 02 16 17  09 13 34.644   +33 27 33.63  .34413 1.3107 156.5 21.3 2319  12
2019 02 16 18  09 13 36.524   +33 27 21.34  .34422 1.3108 156.5 21.3 2348  13
2019 02 16 19  09 13 38.406   +33 27 08.99  .34430 1.3108 156.5 21.3 2377  13
2019 02 16 20  09 13 40.290   +33 26 56.58  .34439 1.3109 156.4 21.3 2406  13
2019 02 16 21  09 13 42.176   +33 26 44.11  .34448 1.3109 156.4 21.3 2436  13
2019 02 16 22  09 13 44.063   +33 26 31.59  .34457 1.3110 156.4 21.3 2466  13
2019 02 16 23  09 13 45.952   +33 26 19.00  .34466 1.3110 156.4 21.3 2497  13
2019 02 17 00  09 13 47.843   +33 26 06.36  .34475 1.3111 156.4 21.3 2528  13
2019 02 17 01  09 13 49.736   +33 25 53.66  .34484 1.3111 156.3 21.3 2560  13
2019 02 17 02  09 13 51.630   +33 25 40.90  .34492 1.3112 156.3 21.3 2592  13
2019 02 17 03  09 13 53.526   +33 25 28.09  .34501 1.3112 156.3 21.3 2624  13
2019 02 17 04  09 13 55.424   +33 25 15.21  .34510 1.3113 156.3 21.3 2657  13
2019 02 17 05  09 13 57.323   +33 25 02.28  .34519 1.3113 156.2 21.3 2691  13
2019 02 17 06  09 13 59.224   +33 24 49.29  .34528 1.3114 156.2 21.3 2725  13
2019 02 17 07  09 14 01.128   +33 24 36.24  .34537 1.3114 156.2 21.3 2759  13
2019 02 17 08  09 14 03.032   +33 24 23.13  .34546 1.3115 156.2 21.3 2794  13
2019 02 17 09  09 14 04.939   +33 24 09.97  .34555 1.3115 156.1 21.3 2830  14
2019 02 17 10  09 14 06.847   +33 23 56.75  .34565 1.3116 156.1 21.3 2866  14
2019 02 17 11  09 14 08.757   +33 23 43.47  .34574 1.3116 156.1 21.3 2903  14
2019 02 17 12  09 14 10.669   +33 23 30.13  .34583 1.3117 156.1 21.3 2940  14
2019 02 17 13  09 14 12.583   +33 23 16.74  .34592 1.3117 156.1 21.3 2978  14
2019 02 17 14  09 14 14.498   +33 23 03.28  .34601 1.3118 156.0 21.3 3016  14
2019 02 17 15  09 14 16.415   +33 22 49.77  .34610 1.3119 156.0 21.3 3056  14
2019 02 17 16  09 14 18.334   +33 22 36.21  .34619 1.3119 156.0 21.3 3095  14
2019 02 17 17  09 14 20.254   +33 22 22.58  .34629 1.3120 156.0 21.3 3136  14
2019 02 17 18  09 14 22.177   +33 22 08.90  .34638 1.3120 155.9 21.3 3177  14
2019 02 17 19  09 14 24.101   +33 21 55.16  .34647 1.3121 155.9 21.3 3219  14
2019 02 17 20  09 14 26.027   +33 21 41.36  .34656 1.3121 155.9 21.3 3261  14
2019 02 17 21  09 14 27.955   +33 21 27.51  .34666 1.3122 155.9 21.3 3304  14